User: anonymous   Login
Location: Unspecified
(0.0000°N, 0.0000°E)
Time: 08:39:07
(UTC+01:00)
Language:

Cosmos 1733 Rocket - Orbit

View from above orbital plane
View from above orbital plane
View from above satellite
View from above satellite

Ground track
Ground track

The orbit data is extracted from the following two-line orbital elements,

1 16612U 86018B   16343.91138634  .00000122  00000-0  11656-4 0  9999
2 16612  82.5165 114.9524 0019057  63.5395  55.3995 14.84122111563234
Epoch (UTC): 08 December 2016 21:52:23
Eccentricity: 0.0019057
inclination: 82.5165°
perigee height: 603 km
apogee height: 629 km
right ascension of ascending node: 114.9524°
argument of perigee: 63.5395°
revolutions per day: 14.84122111
mean anomaly at epoch: 55.3995°
orbit number at epoch: 56323

The dashed part of the orbit path shows where the satellite is in the earth's shadow,  

DLR